Tracking 29892 objects as of 21-Nov-2024
HD Live streaming from Space Station
objects crossing your sky now

SL-12 R/B(AUX MOTOR)

Track SL-12 R/B(AUX MOTOR) now!
10-day predictions


NORAD ID: 23403
Int'l Code: 1994-076H
Perigee: 591.7 km
Apogee: 18,742.2 km
Inclination: 65.2 °
Period: 336.9 minutes
Semi major axis: 16037 km
RCS: 0.7427 m2 (medium)
Launch date: November 20, 1994
Source: Commonwealth of Independent States (former USSR) (CIS)
Launch site: TYURATAM MISSILE AND SPACE COMPLEX (TTMTR)

Note: This is a ROCKET BODY
Your satellite tracking list
Your tracking list is empty




NASA's NSSDC Master Catalog

Two Line Element Set (TLE):
1 23403U 94076H   24325.12983865  .00000194  00000-0  69195-3 0  9993
2 23403  65.2002 164.1070 5658590 142.0195 348.1762  4.27443113466150
Source of the keplerian elements: AFSPC